Regional Weather Roundup
Issued by NWS

Home | Current Version | Previous Version | Graphics & Text | Print | Product List | Glossary On
Versions: 1 2 3 4 5 6 7 8 9 10 11 12 13 14 15 16 17 18 19 20 21 22 23 24 25 26 27 28 29 30 31 32 33 34 35 36 37 38 39 40 41 42 43 44 45 46 47 48 49 50
838
ASUS45 KBOU 182310
RWRCO

WEATHER ROUNDUP FOR COLORADO
NATIONAL WEATHER SERVICE DENVER/BOULDER CO
400 PM MST THU JAN 18 2018

NOTE: "FAIR" INDICATES FEW OR NO CLOUDS BELOW 12000 FEET WITH NO
SIGNIFICANT WEATHER AND/OR OBSTRUCTIONS TO VISIBILITY.

COZ001>005-013-030-031-190000-
...NORTHWEST COLORADO...

CITY           SKY/WX    TMP DP  RH WIND       PRES   REMARKS
CRAIG          FAIR      41  18  39 NE15      30.15F
HAYDEN         FAIR     N/A N/A N/A SE12      30.18F
MEEKER         FAIR      47  22  37 S3        30.15F
RABBIT EARS PA FAIR      32  19  59 SW7       30.24F WCI  26
STEAMBOAT SPGS FAIR      30  17  58 SE3       30.18F
WALDEN         FAIR      39  14  35 S10       30.18F
$$

COZ006>008-011-190000-
...WEST CENTRAL VALLEYS...

CITY           SKY/WX    TMP DP  RH WIND       PRES   REMARKS
GRAND JUNCTION FAIR      47  16  29 CALM      30.19F
MONTROSE       FAIR      48  14  25 CALM      30.20F
EAGLE          FAIR      39  14  36 W5        30.24F
RIFLE          FAIR      45  17  32 CALM      30.19F
DELTA          FAIR      49  15  24 W3        30.19F
NUCLA          FAIR      48  16  27 N3        30.23S
$$

COZ017>023-064>068-190000-
...SOUTHWEST COLORADO...

CITY           SKY/WX    TMP DP  RH WIND       PRES   REMARKS
DURANGO        FAIR      46  20  35 SW5       30.20S
CORTEZ         FAIR      47  20  34 SW6       30.20F
PAGOSA SPRINGS FAIR      47  12  24 SW3       30.21R
TELLURIDE      FAIR      43  12  27 W6        30.27S
WOLF CREEK PAS FAIR      34   9  35 SW6       30.36S WCI  29
$$

COZ009-010-012-014-032>034-037-058>063-190000-
...CENTRAL COLORADO...

CITY           SKY/WX    TMP DP  RH WIND       PRES   REMARKS
ASPEN          FAIR      40  14  34 NW7       30.19F
BUENA VISTA    FAIR      54   4  13 NW14      30.13S
COPPER MTN     NOT AVBL
BERTHOUD PASS  FAIR      25  12  58 NW22      30.30S WCI  10
COTTONWOOD PAS   N/A     52   3  14 W8        30.21S
GUNNISON       FAIR      35  11  36 CALM      30.25F
KREMMLING      FAIR      36  18  48 SW3       30.25F
LEADVILLE      FAIR      39  10  30 NW8       30.23R
MONARCH PASS   FAIR      32   5  32 SW17      30.41R WCI  21
SALIDA         FAIR      55   3  12 W9        30.19S
SUNLIGHT       FAIR      32  12  43 SW8       30.32R WCI  25
WILKERSON PASS FAIR      41   5  22 W7        30.28R
$$

COZ069>075-190000-
...SAN LUIS VALLEY/SANGRE DE CRISTO MOUNTAINS...

CITY           SKY/WX    TMP DP  RH WIND       PRES   REMARKS
ALAMOSA        FAIR      45   2  17 S5        30.17F
DEL NORTE      FAIR      44   3  19 E6        30.19S
LA VETA PASS   FAIR      34   7  32 SW22G30     N/A  WCI  22
SAGUACHE       FAIR      43   7  22 SE5       30.19S
$$

COZ035-036-038>040-190000-
...NORTHERN COLORADO FRONT RANGE...

CITY           SKY/WX    TMP DP  RH WIND       PRES   REMARKS
DENVER INTL AP MOCLDY    62   9  12 E3        29.98R
DMNS CITY PARK NOT AVBL
AURORA         MOCLDY    64   6  10 E5        29.99R
FRONT RANGE AP NOT AVBL
ERIE MUNI ARPT FAIR      56  19  24 N5        30.02R
BOULDER MUN AP FAIR      57  21  24 CALM      29.97S
CENTENNIAL     MOCLDY    63   5  10 CALM      29.99R
BROOMFIELD     PTCLDY    64   9  11 CALM      29.99R
FORT COLLINS   FAIR      53  25  33 S3        29.97F
LONGMONT       FAIR      60  16  18 CALM      29.99S
$$

COZ041-046-047-076>085-087-088-190000-
...PIKES PEAK/PALMER DIVIDE AND SOUTHERN FOOTHILLS...

CITY           SKY/WX    TMP DP  RH WIND       PRES   REMARKS
COLO. SPRINGS  MOCLDY    54   8  16 SE7       30.05R
A. F. ACADEMY  FAIR      55   3  12 S6        30.04R
SCHRIEVER AFB  FAIR      54   5  14 CALM      30.05R
CHEYENNE MTN   FAIR      47  11  23 CALM      30.01S
ELLICOTT         N/A    N/A N/A N/A SW5       30.03R
FALCON         FAIR      55   0  10 S9G16     30.07S
FORT CARSON    FAIR      54   7  15 SE7       30.02R
LIMON          FAIR      57   8  14 S6        30.00R
MONUMENT HILL  FAIR      54   9  16 S7        30.07R
CANON CITY     FAIR      61  12  15 E6        30.00R
WALSENBURG     FAIR      61  12  15 SW7       30.03S
TRINIDAD       FAIR      58   6  12 S7        30.04S
$$

COZ042>045-048>051-090-091-190000-
...NORTHEAST COLORADO...

CITY           SKY/WX    TMP DP  RH WIND       PRES   REMARKS
GREELEY ARPT   FAIR      53  21  28 CALM      29.97S
AKRON          FAIR      57  25  29 W5        29.96R
BURLINGTON     FAIR      54  15  21 S8        29.97F
WRAY           FAIR      61  18  18 CALM      29.93F
YUMA           FAIR      61  14  16 CALM      29.94S
STERLING       FAIR      54  23  30 S6        29.93S
HOLYOKE        FAIR      55  25  30 W6        29.94R
FORT MORGAN    FAIR      58  14  17 SW5       29.96S
$$

COZ086-089-092>099-190000-
...SOUTHEAST COLORADO...

CITY           SKY/WX    TMP DP  RH WIND       PRES   REMARKS
PUEBLO         FAIR      60  12  15 E5        29.98S
LA JUNTA       FAIR      59  11  15 CALM      29.98F
LAMAR          FAIR      56  13  18 NW3       29.97S
SPRINGFIELD      N/A     57   2  11 S8        30.00S
$$




USA.gov is the U.S. government's official web portal to all federal, state and local government web resources and services.